| time (UTC) | temp F | wind direction | speed MPH | gust MPH | rain 1hr in | rain 24hr in | rain mn in | humidity % | barometer mb |
| 20260508065347 | 39 | 220 | 0.0 | 0.0 | 0.00 | 0.00 | 0.00 | 76 | 1000.1 |
| 20260508064845 | 39 | 189 | 0.0 | 5.0 | 0.00 | 0.00 | 0.00 | 76 | 1000.1 |
| 20260508064342 | 39 | 194 | 0.0 | 0.0 | 0.00 | 0.00 | 0.00 | 76 | 1000.1 |
| 20260508063840 | 39 | 257 | 0.0 | 0.0 | 0.00 | 0.00 | 0.00 | 75 | 1000.4 |
| 20260508063337 | 39 | 220 | 0.0 | 0.0 | 0.00 | 0.00 | 0.00 | 75 | 1000.4 |
| 20260508062834 | 39 | 186 | 0.0 | 0.0 | 0.00 | 0.00 | 0.00 | 75 | 1000.1 |
| 20260508062332 | 39 | 177 | 0.0 | 0.0 | 0.00 | 0.00 | 0.00 | 75 | 1000.4 |
| 20260508061828 | 39 | 215 | 0.0 | 0.0 | 0.00 | 0.00 | 0.00 | 75 | 1000.4 |
| 20260508061326 | 39 | 138 | 0.0 | 0.0 | 0.00 | 0.00 | 0.00 | 75 | 1000.1 |
| 20260508060822 | 39 | 221 | 0.0 | 2.0 | 0.00 | 0.00 | 0.00 | 74 | 1000.4 |
| 20260508060320 | 39 | 218 | 0.0 | 0.0 | 0.00 | 0.00 | 0.00 | 74 | 1000.4 |
| 20260508055814 | 39 | 262 | 0.0 | 0.0 | 0.00 | 0.00 | 0.00 | 74 | 1000.4 |
| 20260508055313 | 39 | 204 | 0.0 | 0.0 | 0.00 | 0.00 | 0.00 | 74 | 1000.4 |
| 20260508054809 | 39 | 259 | 0.0 | 0.0 | 0.00 | 0.00 | 0.00 | 74 | 1000.4 |
| 20260508054306 | 39 | 240 | 0.0 | 0.0 | 0.00 | 0.00 | 0.00 | 74 | 1000.4 |
| 20260508053803 | 39 | 228 | 0.0 | 0.0 | 0.00 | 0.00 | 0.00 | 74 | 1000.4 |
| 20260508053300 | 39 | 238 | 0.0 | 0.0 | 0.00 | 0.00 | 0.00 | 74 | 1000.4 |
| 20260508052758 | 39 | 203 | 0.0 | 0.0 | 0.00 | 0.00 | 0.00 | 74 | 1000.4 |
| 20260508052255 | 39 | 212 | 0.0 | 0.0 | 0.00 | 0.00 | 0.00 | 75 | 1000.4 |
| 20260508051751 | 38 | 198 | 0.0 | 0.0 | 0.00 | 0.00 | 0.00 | 75 | 1000.4 |
| 20260508051246 | 38 | 226 | 0.0 | 5.0 | 0.00 | 0.00 | 0.00 | 76 | 1000.4 |
| 20260508050743 | 38 | 210 | 0.0 | 2.0 | 0.00 | 0.00 | 0.00 | 76 | 1000.4 |
| 20260508050240 | 37 | 173 | 0.0 | 0.0 | 0.00 | 0.00 | 0.00 | 77 | 1000.9 |
| 20260508045735 | 37 | 254 | 0.0 | 5.0 | 0.00 | 0.00 | 0.00 | 77 | 1000.4 |
| 20260508045234 | 37 | 200 | 0.0 | 0.0 | 0.00 | 0.00 | 0.00 | 77 | 1000.9 |
| 20260508044731 | 37 | 236 | 0.0 | 0.0 | 0.00 | 0.00 | 0.00 | 78 | 1000.9 |
| 20260508044228 | 37 | 207 | 0.0 | 0.0 | 0.00 | 0.00 | 0.00 | 78 | 1000.9 |
| 20260508043724 | 37 | 181 | 0.0 | 0.0 | 0.00 | 0.00 | 0.00 | 78 | 1000.9 |
| 20260508043221 | 37 | 206 | 0.0 | 0.0 | 0.00 | 0.00 | 0.00 | 78 | 1000.9 |
| 20260508042718 | 37 | 228 | 0.0 | 0.0 | 0.00 | 0.00 | 0.00 | 78 | 1000.9 |
| 20260508042215 | 37 | 192 | 0.0 | 0.0 | 0.00 | 0.00 | 0.00 | 78 | 1000.9 |
| 20260508041711 | 36 | 196 | 0.0 | 0.0 | 0.00 | 0.00 | 0.00 | 77 | 1000.9 |
| 20260508041209 | 36 | 197 | 0.0 | 0.0 | 0.00 | 0.00 | 0.00 | 77 | 1000.9 |
| 20260508040705 | 36 | 199 | 0.0 | 0.0 | 0.00 | 0.00 | 0.00 | 77 | 1000.9 |
| 20260508040202 | 37 | 190 | 0.0 | 0.0 | 0.00 | 0.00 | 0.00 | 77 | 1000.9 |
| 20260508035659 | 37 | 190 | 0.0 | 0.0 | 0.00 | 0.44 | 0.44 | 77 | 1000.9 |
| 20260508035157 | 37 | 202 | 0.0 | 0.0 | 0.00 | 0.44 | 0.44 | 77 | 1000.9 |
| 20260508034653 | 37 | 216 | 0.0 | 0.0 | 0.00 | 0.44 | 0.44 | 77 | 1000.9 |
| 20260508034150 | 37 | 196 | 0.0 | 0.0 | 0.00 | 0.44 | 0.44 | 77 | 1000.9 |
| 20260508033648 | 37 | 196 | 0.0 | 0.0 | 0.00 | 0.44 | 0.44 | 77 | 1000.9 |
| 20260508033146 | 37 | 208 | 0.0 | 0.0 | 0.00 | 0.44 | 0.44 | 76 | 1000.9 |
| 20260508032643 | 37 | 208 | 0.0 | 0.0 | 0.00 | 0.44 | 0.44 | 76 | 1000.9 |
| 20260508032140 | 38 | 195 | 0.0 | 0.0 | 0.00 | 0.44 | 0.44 | 76 | 1000.9 |
| 20260508031637 | 38 | 208 | 0.0 | 0.0 | 0.00 | 0.44 | 0.44 | 76 | 1000.9 |
| 20260508031133 | 39 | 186 | 0.0 | 0.0 | 0.00 | 0.44 | 0.44 | 76 | 1000.9 |
| 20260508030629 | 39 | 217 | 0.0 | 0.0 | 0.00 | 0.44 | 0.44 | 76 | 1000.9 |
| 20260508030127 | 39 | 218 | 0.0 | 0.0 | 0.00 | 0.44 | 0.44 | 76 | 1001.2 |
| 20260508025623 | 39 | 268 | 0.0 | 0.0 | 0.00 | 0.44 | 0.44 | 76 | 1001.2 |
| 20260508025121 | 39 | 190 | 0.0 | 0.0 | 0.00 | 0.44 | 0.44 | 76 | 1001.2 |
| 20260508024616 | 39 | 195 | 0.0 | 0.0 | 0.00 | 0.44 | 0.44 | 76 | 1001.2 |
| 20260508024114 | 39 | 183 | 0.0 | 0.0 | 0.00 | 0.44 | 0.44 | 76 | 1001.2 |
| 20260508023610 | 39 | 192 | 0.0 | 0.0 | 0.00 | 0.44 | 0.44 | 76 | 1001.6 |
| 20260508023108 | 40 | 195 | 0.0 | 0.0 | 0.00 | 0.44 | 0.44 | 76 | 1001.2 |
| 20260508022603 | 40 | 204 | 0.0 | 0.0 | 0.00 | 0.44 | 0.44 | 76 | 1001.6 |
| 20260508022101 | 40 | 200 | 0.0 | 0.0 | 0.00 | 0.44 | 0.44 | 76 | 1001.6 |
| 20260508021556 | 40 | 220 | 0.0 | 0.0 | 0.00 | 0.44 | 0.44 | 76 | 1001.6 |
| 20260508021052 | 40 | 205 | 0.0 | 0.0 | 0.00 | 0.44 | 0.44 | 76 | 1001.2 |
| 20260508020550 | 40 | 201 | 0.0 | 0.0 | 0.00 | 0.44 | 0.44 | 76 | 1001.6 |
| 20260508020048 | 40 | 211 | 0.0 | 0.0 | 0.00 | 0.44 | 0.44 | 76 | 1001.6 |
| 20260508015545 | 40 | 190 | 0.0 | 0.0 | 0.00 | 0.44 | 0.44 | 76 | 1001.6 |
| 20260508015042 | 40 | 192 | 0.0 | 0.0 | 0.00 | 0.44 | 0.44 | 76 | 1001.2 |
| 20260508014538 | 40 | 207 | 0.0 | 0.0 | 0.00 | 0.44 | 0.44 | 76 | 1001.2 |
| 20260508014034 | 40 | 200 | 0.0 | 0.0 | 0.00 | 0.44 | 0.44 | 76 | 1001.6 |
| 20260508013530 | 40 | 206 | 0.0 | 0.0 | 0.00 | 0.44 | 0.44 | 75 | 1001.6 |
| 20260508013028 | 41 | 204 | 0.0 | 0.0 | 0.00 | 0.44 | 0.44 | 75 | 1001.6 |
| 20260508012525 | 41 | 200 | 0.0 | 0.0 | 0.00 | 0.44 | 0.44 | 75 | 1001.6 |
| 20260508012022 | 41 | 213 | 0.0 | 0.0 | 0.00 | 0.44 | 0.44 | 75 | 1001.6 |
| 20260508011520 | 41 | 268 | 0.0 | 0.0 | 0.00 | 0.44 | 0.44 | 75 | 1001.6 |
| 20260508011017 | 41 | 10 | 0.0 | 0.0 | 0.00 | 0.44 | 0.44 | 74 | 1001.6 |
| 20260508010514 | 41 | 352 | 0.0 | 2.0 | 0.00 | 0.44 | 0.44 | 74 | 1001.6 |
| 20260508010012 | 42 | 109 | 0.0 | 5.0 | 0.00 | 0.44 | 0.44 | 71 | 1001.9 |
| 20260508005508 | 42 | 279 | 0.0 | 0.0 | 0.00 | 0.44 | 0.44 | 70 | 1001.9 |
| 20260508005005 | 42 | 261 | 0.0 | 2.0 | 0.00 | 0.44 | 0.44 | 69 | 1001.9 |
| 20260508004501 | 43 | 197 | 0.0 | 5.0 | 0.00 | 0.44 | 0.44 | 68 | 1001.9 |
| 20260508003958 | 42 | 213 | 0.0 | 0.0 | 0.00 | 0.44 | 0.44 | 70 | 1001.2 |
| 20260508003454 | 42 | 232 | 0.0 | 0.0 | 0.00 | 0.44 | 0.44 | 70 | 1001.2 |
| 20260508002952 | 42 | 211 | 0.0 | 0.0 | 0.00 | 0.44 | 0.44 | 69 | 1001.2 |
| 20260508002448 | 42 | 203 | 0.0 | 0.0 | 0.00 | 0.44 | 0.44 | 69 | 1001.2 |
| 20260508001944 | 42 | 221 | 0.0 | 0.0 | 0.00 | 0.44 | 0.44 | 68 | 1001.2 |
| 20260508001440 | 42 | 205 | 0.0 | 0.0 | 0.00 | 0.44 | 0.44 | 68 | 1000.9 |
| 20260508000937 | 43 | 200 | 0.0 | 0.0 | 0.00 | 0.44 | 0.44 | 67 | 1001.2 |
| 20260508000434 | 43 | 205 | 0.0 | 0.0 | 0.00 | 0.44 | 0.44 | 67 | 1000.9 |
| 20260507235930 | 43 | 206 | 0.0 | 0.0 | 0.00 | 0.44 | 0.44 | 66 | 1000.9 |
| 20260507235427 | 44 | 192 | 0.0 | 0.0 | 0.00 | 0.44 | 0.44 | 66 | 1000.9 |
| 20260507234924 | 44 | 198 | 0.0 | 0.0 | 0.00 | 0.44 | 0.44 | 65 | 1000.9 |
| 20260507234421 | 45 | 93 | 0.0 | 2.0 | 0.00 | 0.44 | 0.44 | 64 | 1000.9 |
| 20260507233917 | 45 | 164 | 0.0 | 0.0 | 0.00 | 0.44 | 0.44 | 65 | 1000.9 |
| 20260507233414 | 45 | 197 | 0.0 | 2.0 | 0.00 | 0.44 | 0.44 | 63 | 1000.9 |
| 20260507232913 | 46 | 187 | 0.0 | 0.0 | 0.00 | 0.44 | 0.44 | 63 | 1000.9 |
| 20260507232409 | 46 | 197 | 0.0 | 0.0 | 0.00 | 0.44 | 0.44 | 63 | 1000.4 |
| 20260507231906 | 46 | 212 | 0.0 | 0.0 | 0.00 | 0.44 | 0.44 | 62 | 1000.9 |
| 20260507231403 | 46 | 186 | 0.0 | 0.0 | 0.00 | 0.44 | 0.44 | 61 | 1000.9 |
| 20260507230859 | 47 | 219 | 0.0 | 0.0 | 0.00 | 0.44 | 0.44 | 60 | 1000.4 |
| 20260507230357 | 47 | 345 | 0.0 | 5.0 | 0.00 | 0.44 | 0.44 | 60 | 1000.9 |
| 20260507225856 | 47 | 201 | 0.0 | 2.0 | 0.00 | 0.44 | 0.44 | 61 | 1000.4 |
| 20260507225353 | 47 | 123 | 0.0 | 2.0 | 0.00 | 0.44 | 0.44 | 60 | 1000.4 |
| 20260507224849 | 48 | 243 | 0.0 | 0.0 | 0.00 | 0.44 | 0.44 | 62 | 1000.4 |
| 20260507224346 | 48 | 215 | 0.0 | 8.0 | 0.00 | 0.44 | 0.44 | 63 | 1000.4 |
| 20260507223841 | 48 | 207 | 0.0 | 0.0 | 0.00 | 0.44 | 0.44 | 66 | 1000.4 |
| 20260507223338 | 48 | 195 | 0.0 | 0.0 | 0.00 | 0.44 | 0.44 | 65 | 1000.4 |
| 20260507222835 | 48 | 234 | 0.0 | 8.0 | 0.00 | 0.44 | 0.44 | 66 | 1000.4 |
| 20260507222331 | 49 | 177 | 1.0 | 2.0 | 0.00 | 0.44 | 0.44 | 66 | 1000.4 |
| 20260507221829 | 49 | 263 | 0.0 | 5.0 | 0.00 | 0.44 | 0.44 | 65 | 1000.4 |
| 20260507221325 | 49 | 238 | 0.0 | 5.0 | 0.00 | 0.44 | 0.44 | 65 | 1000.1 |
| 20260507220821 | 49 | 17 | 0.0 | 2.0 | 0.00 | 0.44 | 0.44 | 64 | 999.8 |
| 20260507220320 | 49 | 286 | 4.0 | 13.0 | 0.00 | 0.44 | 0.44 | 65 | 1000.1 |
| 20260507215816 | 50 | 193 | 0.0 | 0.0 | 0.00 | 0.44 | 0.44 | 68 | 1000.1 |
| 20260507215313 | 49 | 197 | 0.0 | 5.0 | 0.00 | 0.44 | 0.44 | 67 | 1000.1 |
| 20260507214810 | 49 | 191 | 0.0 | 0.0 | 0.00 | 0.44 | 0.44 | 66 | 999.8 |
| 20260507214308 | 50 | 206 | 0.0 | 0.0 | 0.00 | 0.44 | 0.44 | 65 | 999.8 |
| 20260507213802 | 51 | 152 | 0.0 | 2.0 | 0.00 | 0.44 | 0.44 | 65 | 999.8 |
| 20260507213259 | 51 | 317 | 0.0 | 5.0 | 0.00 | 0.44 | 0.44 | 66 | 999.8 |
| 20260507212756 | 50 | 280 | 0.0 | 0.0 | 0.00 | 0.44 | 0.44 | 68 | 999.8 |
| 20260507212252 | 50 | 258 | 0.0 | 0.0 | 0.00 | 0.44 | 0.44 | 67 | 999.8 |
| 20260507211749 | 51 | 226 | 0.0 | 0.0 | 0.00 | 0.44 | 0.44 | 67 | 999.8 |
| 20260507211245 | 51 | 196 | 0.0 | 0.0 | 0.00 | 0.44 | 0.44 | 68 | 999.8 |
| 20260507210742 | 50 | 154 | 0.0 | 0.0 | 0.00 | 0.44 | 0.44 | 67 | 999.4 |
| 20260507210239 | 50 | 31 | 0.0 | 0.0 | 0.00 | 0.44 | 0.44 | 67 | 999.4 |
| 20260507205736 | 50 | 193 | 0.0 | 0.0 | 0.00 | 0.44 | 0.44 | 70 | 999.4 |
| 20260507205233 | 50 | 201 | 0.0 | 0.0 | 0.00 | 0.44 | 0.44 | 71 | 999.4 |
| 20260507204729 | 49 | 217 | 0.0 | 0.0 | 0.00 | 0.44 | 0.44 | 70 | 999.4 |
| 20260507204227 | 49 | 189 | 0.0 | 0.0 | 0.00 | 0.44 | 0.44 | 70 | 999.4 |
| 20260507203724 | 49 | 357 | 0.0 | 0.0 | 0.00 | 0.44 | 0.44 | 68 | 999.4 |
| 20260507203222 | 49 | 148 | 0.0 | 5.0 | 0.00 | 0.44 | 0.44 | 67 | 999.1 |
| 20260507202718 | 50 | 342 | 0.0 | 0.0 | 0.00 | 0.44 | 0.44 | 67 | 999.1 |
| 20260507202214 | 51 | 355 | 0.0 | 0.0 | 0.00 | 0.44 | 0.44 | 69 | 999.1 |
| 20260507201709 | 50 | 333 | 0.0 | 0.0 | 0.00 | 0.44 | 0.44 | 73 | 999.1 |
| 20260507201206 | 48 | 14 | 1.0 | 8.0 | 0.00 | 0.44 | 0.44 | 73 | 999.1 |
| 20260507200702 | 48 | 333 | 0.0 | 0.0 | 0.00 | 0.44 | 0.44 | 75 | 999.1 |
| 20260507200158 | 47 | 33 | 0.0 | 5.0 | 0.00 | 0.44 | 0.44 | 75 | 999.4 |
| 20260507195655 | 48 | 347 | 1.0 | 8.0 | 0.00 | 0.44 | 0.44 | 75 | 999.4 |
| 20260507195152 | 48 | 14 | 0.0 | 5.0 | 0.00 | 0.44 | 0.44 | 75 | 999.4 |
| 20260507194649 | 49 | 1 | 0.0 | 2.0 | 0.00 | 0.44 | 0.44 | 76 | 999.4 |
| 20260507194144 | 48 | 8 | 0.0 | 0.0 | 0.00 | 0.44 | 0.44 | 77 | 999.4 |
| 20260507193641 | 47 | 1 | 4.0 | 5.0 | 0.00 | 0.44 | 0.44 | 76 | 999.4 |
| 20260507193139 | 47 | 330 | 0.0 | 0.0 | 0.00 | 0.44 | 0.44 | 76 | 999.4 |
| 20260507192634 | 46 | 3 | 0.0 | 8.0 | 0.00 | 0.44 | 0.44 | 76 | 999.8 |
| 20260507192132 | 46 | 359 | 0.0 | 0.0 | 0.00 | 0.44 | 0.44 | 76 | 999.4 |
| 20260507191627 | 46 | 12 | 0.0 | 0.0 | 0.07 | 0.44 | 0.44 | 75 | 999.8 |
| 20260507191124 | 46 | 183 | 0.0 | 0.0 | 0.14 | 0.44 | 0.44 | 75 | 999.8 |
| 20260507190622 | 46 | 204 | 0.0 | 0.0 | 0.14 | 0.43 | 0.43 | 72 | 999.8 |
| 20260507190120 | 46 | 114 | 0.0 | 0.0 | 0.07 | 0.41 | 0.41 | 71 | 999.8 |
| 20260507185619 | 49 | 333 | 0.0 | 2.0 | 0.00 | 0.40 | 0.40 | 63 | 999.4 |
| 20260507185114 | 51 | 205 | 0.0 | 2.0 | 0.00 | 0.40 | 0.40 | 62 | 999.4 |
| 20260507184613 | 52 | 79 | 0.0 | 0.0 | 0.00 | 0.40 | 0.40 | 58 | 999.1 |
| 20260507184110 | 52 | 57 | 1.0 | 8.0 | 0.00 | 0.40 | 0.40 | 58 | 999.1 |
| 20260507183606 | 53 | 264 | 0.0 | 2.0 | 0.00 | 0.40 | 0.40 | 57 | 999.1 |
| 20260507183103 | 53 | 90 | 3.0 | 8.0 | 0.00 | 0.40 | 0.40 | 55 | 998.7 |
| 20260507182559 | 54 | 160 | 0.0 | 0.0 | 0.00 | 0.40 | 0.40 | 56 | 999.1 |
| 20260507182055 | 53 | 126 | 0.0 | 0.0 | 0.00 | 0.40 | 0.40 | 56 | 999.1 |
| 20260507181553 | 53 | 341 | 0.0 | 0.0 | 0.00 | 0.40 | 0.40 | 56 | 999.1 |
| 20260507181049 | 53 | 5 | 0.0 | 0.0 | 0.00 | 0.40 | 0.40 | 54 | 999.4 |
| 20260507180545 | 53 | 349 | 0.0 | 0.0 | 0.00 | 0.40 | 0.40 | 56 | 999.1 |
| 20260507180042 | 53 | 173 | 0.0 | 0.0 | 0.00 | 0.40 | 0.40 | 56 | 999.4 |
| 20260507175538 | 54 | 195 | 0.0 | 0.0 | 0.00 | 0.40 | 0.40 | 54 | 999.4 |
| 20260507175037 | 54 | 214 | 0.0 | 0.0 | 0.00 | 0.40 | 0.40 | 54 | 999.8 |
| 20260507174533 | 54 | 223 | 0.0 | 0.0 | 0.00 | 0.40 | 0.40 | 50 | 999.4 |
| 20260507174031 | 54 | 126 | 0.0 | 2.0 | 0.00 | 0.40 | 0.40 | 50 | 999.4 |
| 20260507173527 | 54 | 190 | 0.0 | 0.0 | 0.00 | 0.40 | 0.40 | 51 | 999.4 |
| 20260507173025 | 54 | 9 | 0.0 | 0.0 | 0.00 | 0.40 | 0.40 | 50 | 999.4 |
| 20260507172521 | 54 | 174 | 0.0 | 0.0 | 0.00 | 0.40 | 0.40 | 54 | 999.4 |
| 20260507172018 | 54 | 238 | 0.0 | 0.0 | 0.00 | 0.40 | 0.40 | 52 | 999.4 |
| 20260507171513 | 54 | 299 | 0.0 | 0.0 | 0.00 | 0.40 | 0.40 | 55 | 999.8 |
| 20260507171011 | 54 | 230 | 0.0 | 0.0 | 0.00 | 0.40 | 0.40 | 55 | 999.8 |
| 20260507170507 | 54 | 216 | 0.0 | 0.0 | 0.00 | 0.40 | 0.40 | 57 | 999.8 |
| 20260507170004 | 53 | 226 | 0.0 | 0.0 | 0.00 | 0.40 | 0.40 | 55 | 999.8 |
| 20260507165500 | 53 | 190 | 0.0 | 0.0 | 0.00 | 0.40 | 0.40 | 54 | 999.8 |
| 20260507164956 | 53 | 234 | 0.0 | 0.0 | 0.00 | 0.40 | 0.40 | 54 | 999.8 |
| 20260507164453 | 54 | 198 | 0.0 | 0.0 | 0.00 | 0.40 | 0.40 | 58 | 999.8 |
| 20260507163949 | 53 | 206 | 0.0 | 0.0 | 0.00 | 0.40 | 0.40 | 54 | 999.8 |
| 20260507163447 | 53 | 243 | 0.0 | 2.0 | 0.00 | 0.40 | 0.40 | 56 | 999.8 |
| 20260507162944 | 53 | 239 | 0.0 | 0.0 | 0.00 | 0.40 | 0.40 | 57 | 999.8 |
| 20260507162439 | 53 | 232 | 0.0 | 0.0 | 0.00 | 0.40 | 0.40 | 54 | 999.8 |
| 20260507161937 | 53 | 355 | 0.0 | 0.0 | 0.00 | 0.40 | 0.40 | 56 | 999.8 |
| 20260507161433 | 53 | 210 | 0.0 | 0.0 | 0.00 | 0.40 | 0.40 | 56 | 999.8 |
| 20260507160930 | 53 | 321 | 0.0 | 5.0 | 0.00 | 0.40 | 0.40 | 53 | 1000.1 |
| 20260507160426 | 52 | 31 | 0.0 | 0.0 | 0.00 | 0.40 | 0.40 | 54 | 1000.1 |
| 20260507155921 | 52 | 209 | 0.0 | 0.0 | 0.00 | 0.40 | 0.40 | 55 | 1000.4 |
| 20260507155418 | 52 | 206 | 0.0 | 0.0 | 0.00 | 0.40 | 0.40 | 58 | 1000.1 |
| 20260507154915 | 53 | 336 | 0.0 | 5.0 | 0.00 | 0.40 | 0.40 | 56 | 1000.1 |
| 20260507154412 | 55 | 37 | 2.0 | 8.0 | 0.00 | 0.40 | 0.40 | 55 | 1000.4 |
| 20260507153909 | 55 | 174 | 0.0 | 0.0 | 0.00 | 0.40 | 0.40 | 61 | 1000.4 |
| 20260507153405 | 54 | 251 | 4.0 | 5.0 | 0.00 | 0.40 | 0.40 | 67 | 1000.4 |
| 20260507152902 | 52 | 183 | 0.0 | 2.0 | 0.00 | 0.40 | 0.40 | 69 | 1000.4 |
| 20260507152358 | 52 | 41 | 2.0 | 5.0 | 0.00 | 0.40 | 0.40 | 66 | 1000.4 |
| 20260507151854 | 53 | 21 | 2.0 | 5.0 | 0.00 | 0.40 | 0.40 | 67 | 1000.4 |
| 20260507151351 | 53 | 21 | 1.0 | 2.0 | 0.00 | 0.40 | 0.40 | 67 | 1000.4 |
| 20260507150848 | 53 | 232 | 3.0 | 5.0 | 0.00 | 0.40 | 0.40 | 68 | 1000.4 |
| 20260507150344 | 52 | 223 | 0.0 | 5.0 | 0.00 | 0.40 | 0.40 | 69 | 1000.4 |
| 20260507145840 | 53 | 220 | 3.0 | 5.0 | 0.00 | 0.40 | 0.40 | 70 | 1000.4 |
| 20260507145338 | 53 | 198 | 0.0 | 0.0 | 0.00 | 0.40 | 0.40 | 74 | 1000.4 |
| 20260507144834 | 53 | 20 | 0.0 | 0.0 | 0.00 | 0.40 | 0.40 | 73 | 1000.4 |
| 20260507144331 | 50 | 3 | 0.0 | 0.0 | 0.00 | 0.40 | 0.40 | 74 | 1000.4 |
| 20260507143828 | 52 | 344 | 0.0 | 5.0 | 0.00 | 0.40 | 0.40 | 73 | 1000.9 |
| 20260507143325 | 50 | 30 | 4.0 | 5.0 | 0.00 | 0.40 | 0.40 | 75 | 1000.4 |
| 20260507142821 | 51 | 228 | 2.0 | 5.0 | 0.00 | 0.40 | 0.40 | 78 | 1000.9 |
| 20260507142318 | 50 | 162 | 0.0 | 2.0 | 0.00 | 0.40 | 0.40 | 79 | 1000.9 |
| 20260507141814 | 50 | 121 | 0.0 | 0.0 | 0.00 | 0.40 | 0.40 | 79 | 1001.2 |
| 20260507141311 | 48 | 167 | 0.0 | 5.0 | 0.00 | 0.40 | 0.40 | 86 | 1001.2 |
| 20260507140807 | 48 | 245 | 0.0 | 0.0 | 0.00 | 0.40 | 0.40 | 88 | 1001.2 |
| 20260507140305 | 46 | 252 | 0.0 | 0.0 | 0.00 | 0.40 | 0.40 | 91 | 1001.2 |
| 20260507135802 | 46 | 224 | 0.0 | 0.0 | 0.00 | 0.40 | 0.40 | 91 | 1001.2 |
| 20260507135259 | 47 | 228 | 0.0 | 0.0 | 0.00 | 0.40 | 0.40 | 92 | 1001.2 |
| 20260507134755 | 46 | 140 | 0.0 | 0.0 | 0.00 | 0.40 | 0.40 | 92 | 1001.2 |
| 20260507134252 | 45 | 100 | 0.0 | 2.0 | 0.00 | 0.40 | 0.40 | 92 | 1001.2 |
| 20260507133748 | 45 | 196 | 0.0 | 0.0 | 0.00 | 0.40 | 0.40 | 92 | 1001.6 |
| 20260507133244 | 45 | 220 | 0.0 | 0.0 | 0.00 | 0.40 | 0.40 | 92 | 1001.2 |
| 20260507132742 | 45 | 206 | 0.0 | 0.0 | 0.00 | 0.40 | 0.40 | 92 | 1001.6 |
| 20260507132239 | 44 | 334 | 0.0 | 0.0 | 0.00 | 0.40 | 0.40 | 92 | 1000.9 |
| 20260507131736 | 45 | 255 | 0.0 | 0.0 | 0.00 | 0.40 | 0.40 | 92 | 1000.4 |
| 20260507131233 | 45 | 220 | 0.0 | 0.0 | 0.00 | 0.40 | 0.40 | 92 | 1000.9 |
| 20260507130729 | 44 | 196 | 0.0 | 0.0 | 0.00 | 0.40 | 0.40 | 92 | 1001.2 |
| 20260507130227 | 43 | 90 | 0.0 | 2.0 | 0.00 | 0.40 | 0.40 | 92 | 1001.6 |
| 20260507125726 | 43 | 235 | 1.0 | 5.0 | 0.00 | 0.40 | 0.40 | 93 | 1001.6 |
| 20260507125223 | 44 | 185 | 0.0 | 0.0 | 0.00 | 0.40 | 0.40 | 93 | 1001.2 |
| 20260507124720 | 44 | 167 | 0.0 | 0.0 | 0.00 | 0.40 | 0.40 | 93 | 1001.2 |
| 20260507124217 | 44 | 285 | 0.0 | 0.0 | 0.00 | 0.40 | 0.40 | 93 | 1001.2 |
| 20260507123715 | 43 | 223 | 0.0 | 0.0 | 0.00 | 0.40 | 0.40 | 93 | 1001.2 |
| 20260507123212 | 44 | 17 | 0.0 | 0.0 | 0.00 | 0.40 | 0.40 | 93 | 1001.2 |
| 20260507122707 | 43 | 53 | 0.0 | 0.0 | 0.00 | 0.40 | 0.40 | 93 | 1001.2 |
| 20260507122203 | 42 | 219 | 0.0 | 0.0 | 0.00 | 0.40 | 0.40 | 93 | 1001.6 |
| 20260507121659 | 43 | 196 | 0.0 | 0.0 | 0.00 | 0.40 | 0.40 | 93 | 1001.6 |
| 20260507121155 | 43 | 213 | 0.0 | 0.0 | 0.00 | 0.40 | 0.40 | 93 | 1001.6 |
| 20260507120651 | 43 | 236 | 0.0 | 0.0 | 0.00 | 0.40 | 0.40 | 93 | 1001.6 |
| 20260507120148 | 43 | 188 | 0.0 | 0.0 | 0.00 | 0.40 | 0.40 | 93 | 1001.2 |
| 20260507115645 | 43 | 192 | 0.0 | 0.0 | 0.00 | 0.40 | 0.40 | 93 | 1001.2 |
| 20260507115140 | 42 | 185 | 0.0 | 0.0 | 0.00 | 0.40 | 0.40 | 93 | 1001.2 |
| 20260507114636 | 42 | 170 | 0.0 | 0.0 | 0.00 | 0.40 | 0.40 | 93 | 1001.2 |
| 20260507114134 | 42 | 241 | 0.0 | 5.0 | 0.00 | 0.40 | 0.40 | 93 | 1001.2 |
| 20260507113631 | 42 | 213 | 0.0 | 0.0 | 0.00 | 0.40 | 0.40 | 93 | 1000.9 |
| 20260507113128 | 42 | 186 | 0.0 | 0.0 | 0.00 | 0.40 | 0.40 | 93 | 1000.9 |
| 20260507112626 | 41 | 203 | 0.0 | 0.0 | 0.00 | 0.40 | 0.40 | 93 | 1000.9 |
| 20260507112122 | 42 | 249 | 0.0 | 0.0 | 0.00 | 0.40 | 0.40 | 93 | 1000.4 |
| 20260507111619 | 41 | 16 | 0.0 | 0.0 | 0.00 | 0.40 | 0.40 | 93 | 1000.4 |
| 20260507111116 | 41 | 180 | 0.0 | 2.0 | 0.00 | 0.40 | 0.40 | 93 | 1000.9 |
| 20260507110612 | 41 | 278 | 0.0 | 0.0 | 0.00 | 0.40 | 0.40 | 93 | 1001.2 |
| 20260507110109 | 42 | 200 | 0.0 | 0.0 | 0.00 | 0.40 | 0.40 | 93 | 1001.2 |
| 20260507105606 | 42 | 221 | 0.0 | 0.0 | 0.00 | 0.40 | 0.40 | 93 | 1001.2 |
| 20260507105102 | 41 | 207 | 0.0 | 0.0 | 0.00 | 0.40 | 0.40 | 93 | 1001.2 |
| 20260507104600 | 41 | 277 | 0.0 | 2.0 | 0.00 | 0.40 | 0.40 | 93 | 1001.2 |
| 20260507104055 | 41 | 285 | 0.0 | 0.0 | 0.00 | 0.40 | 0.40 | 93 | 1001.2 |
| 20260507103552 | 41 | 166 | 0.0 | 0.0 | 0.00 | 0.40 | 0.40 | 93 | 1001.2 |
| 20260507103049 | 41 | 193 | 0.0 | 0.0 | 0.00 | 0.40 | 0.40 | 93 | 1001.2 |
| 20260507102545 | 42 | 293 | 0.0 | 0.0 | 0.00 | 0.40 | 0.40 | 93 | 1001.2 |
| 20260507102041 | 41 | 197 | 0.0 | 0.0 | 0.00 | 0.40 | 0.40 | 93 | 1000.9 |
| 20260507101537 | 41 | 173 | 0.0 | 0.0 | 0.00 | 0.40 | 0.40 | 93 | 1001.2 |
| 20260507101033 | 41 | 197 | 0.0 | 0.0 | 0.00 | 0.40 | 0.40 | 93 | 1001.2 |
| 20260507100531 | 41 | 197 | 0.0 | 0.0 | 0.00 | 0.40 | 0.40 | 93 | 1000.9 |
| 20260507100029 | 41 | 235 | 0.0 | 0.0 | 0.00 | 0.40 | 0.40 | 93 | 1000.9 |
| 20260507095527 | 41 | 262 | 0.0 | 0.0 | 0.00 | 0.40 | 0.40 | 93 | 1000.9 |
| 20260507095023 | 41 | 209 | 0.0 | 0.0 | 0.00 | 0.40 | 0.40 | 93 | 1000.4 |
| 20260507094519 | 41 | 209 | 0.0 | 0.0 | 0.00 | 0.40 | 0.40 | 93 | 1000.4 |
| 20260507094016 | 41 | 191 | 0.0 | 0.0 | 0.00 | 0.40 | 0.40 | 93 | 1000.4 |
| 20260507093514 | 41 | 207 | 0.0 | 0.0 | 0.00 | 0.40 | 0.40 | 93 | 1000.4 |
| 20260507093012 | 41 | 220 | 0.0 | 0.0 | 0.07 | 0.40 | 0.40 | 93 | 1000.4 |
| 20260507092508 | 41 | 14 | 0.0 | 0.0 | 0.00 | 0.39 | 0.39 | 93 | 1000.4 |
| 20260507092005 | 41 | 168 | 0.0 | 0.0 | 0.00 | 0.39 | 0.39 | 93 | 1000.4 |
| 20260507091502 | 41 | 189 | 0.0 | 0.0 | 0.07 | 0.39 | 0.39 | 93 | 1000.4 |
| 20260507090958 | 41 | 291 | 0.0 | 0.0 | 0.07 | 0.38 | 0.38 | 93 | 1000.4 |
| 20260507090454 | 41 | 174 | 0.0 | 0.0 | 0.07 | 0.38 | 0.38 | 93 | 1000.4 |
| 20260507085950 | 41 | 184 | 0.0 | 0.0 | 0.00 | 0.37 | 0.37 | 93 | 1000.4 |
| 20260507085448 | 41 | 284 | 0.0 | 0.0 | 0.00 | 0.37 | 0.37 | 93 | 1000.4 |
| 20260507084944 | 41 | 212 | 0.0 | 0.0 | 0.07 | 0.37 | 0.37 | 93 | 1000.4 |
| 20260507084441 | 41 | 271 | 0.0 | 0.0 | 0.07 | 0.37 | 0.37 | 93 | 1000.4 |
| 20260507083938 | 41 | 234 | 0.0 | 0.0 | 0.00 | 0.35 | 0.35 | 93 | 1000.1 |
| 20260507083435 | 41 | 213 | 0.0 | 0.0 | 0.00 | 0.35 | 0.35 | 93 | 1000.4 |
| 20260507082931 | 41 | 217 | 0.0 | 0.0 | 0.00 | 0.35 | 0.35 | 93 | 1000.4 |
| 20260507082427 | 42 | 324 | 0.0 | 0.0 | 0.07 | 0.35 | 0.35 | 93 | 1000.4 |
| 20260507081924 | 42 | 170 | 0.0 | 0.0 | 0.07 | 0.35 | 0.35 | 93 | 1000.4 |
| 20260507081420 | 42 | 146 | 0.0 | 0.0 | 0.07 | 0.34 | 0.34 | 93 | 1000.4 |
| 20260507080917 | 42 | 190 | 0.0 | 0.0 | 0.00 | 0.34 | 0.34 | 93 | 1000.4 |
| 20260507080413 | 42 | 195 | 0.0 | 0.0 | 0.00 | 0.33 | 0.33 | 93 | 1000.4 |
| 20260507075909 | 42 | 259 | 0.0 | 0.0 | 0.00 | 0.33 | 0.33 | 93 | 1000.1 |
| 20260507075405 | 42 | 307 | 0.0 | 5.0 | 0.00 | 0.33 | 0.33 | 93 | 1000.1 |
| 20260507074901 | 42 | 182 | 0.0 | 0.0 | 0.00 | 0.33 | 0.33 | 93 | 1000.1 |
| 20260507074358 | 42 | 142 | 0.0 | 0.0 | 0.00 | 0.33 | 0.33 | 93 | 1000.1 |
| 20260507073856 | 42 | 235 | 0.0 | 0.0 | 0.00 | 0.33 | 0.33 | 93 | 1000.1 |
| 20260507073352 | 42 | 182 | 0.0 | 0.0 | 0.00 | 0.33 | 0.33 | 93 | 1000.1 |
| 20260507072849 | 42 | 184 | 0.0 | 0.0 | 0.00 | 0.33 | 0.33 | 93 | 1000.1 |
| 20260507072347 | 42 | 256 | 0.0 | 0.0 | 0.07 | 0.33 | 0.33 | 93 | 1000.1 |
| 20260507071844 | 42 | 143 | 0.0 | 0.0 | 0.07 | 0.33 | 0.33 | 93 | 1000.1 |
| 20260507071342 | 42 | 196 | 0.0 | 0.0 | 0.07 | 0.32 | 0.32 | 93 | 1000.1 |
| 20260507070837 | 42 | 222 | 0.0 | 0.0 | 0.07 | 0.32 | 0.32 | 93 | 1000.4 |
| 20260507070335 | 42 | 15 | 0.0 | 0.0 | 0.07 | 0.31 | 0.31 | 93 | 1000.4 |
| 20260507065832 | 42 | 163 | 0.0 | 0.0 | 0.07 | 0.30 | 0.30 | 93 | 1000.4 |